Location: Paris
(48.6709°N, 2.3750°E)
Time: 16:21:15
(UTC+02:00)

LO-87 - Pass Details

Date: 26 June 2022
Orbit: 451 x 466 km, 97.4° (Epoch: 08 August)

Event Time Altitude Azimuth Distance (km) Brightness Sun altitude
Exits shadow 01:32:28 46° 208° (SSW) 622 ? -17.8°
Maximum altitude 01:33:11 59° 259° (W) 535 ? -17.8°
Drops below altitude 10° 01:36:37 10° 340° (NNW) 1,617 ? -17.9°
Sets 01:38:42 0° 344° (NNW) 2,501 ? -17.9°
